WAT5608 PHKO-

Flight info

Callsign WAT5608
Flight time N/A
Altitude VFR
Route
Aircraft P28R/L-VGD/C

Departure

Time 2026-04-24 01:33
Airport Ellison Onizuka Kona International Airport at Keāhole (PHKO)

Arrival

Time N/A
Airport -
Time Latitude Longitude Altitude Speed Heading
2026-04-24 01:22 19.72702 -156.04316 39 ft 0 kts 181°
2026-04-24 01:25 19.72700 -156.04316 39 ft 0 kts 185°
2026-04-24 01:25 19.72696 -156.04317 39 ft 3 kts 194°
2026-04-24 01:25 19.72665 -156.04350 39 ft 8 kts 228°
2026-04-24 01:25 19.72648 -156.04405 39 ft 3 kts 278°
2026-04-24 01:26 19.72699 -156.04414 39 ft 13 kts
2026-04-24 01:26 19.72814 -156.04404 39 ft 19 kts
2026-04-24 01:26 19.72972 -156.04401 39 ft 26 kts 20°
2026-04-24 01:26 19.73163 -156.04376 39 ft 26 kts
2026-04-24 01:27 19.73329 -156.04361 39 ft 21 kts
2026-04-24 01:27 19.73462 -156.04351 39 ft 17 kts
2026-04-24 01:27 19.73573 -156.04340 38 ft 15 kts
2026-04-24 01:27 19.73681 -156.04330 38 ft 17 kts
2026-04-24 01:28 19.73811 -156.04317 38 ft 21 kts
2026-04-24 01:28 19.73941 -156.04306 38 ft 19 kts
2026-04-24 01:28 19.74064 -156.04293 38 ft 19 kts
2026-04-24 01:28 19.74206 -156.04281 38 ft 22 kts
2026-04-24 01:29 19.74370 -156.04266 38 ft 25 kts
2026-04-24 01:29 19.74550 -156.04251 39 ft 26 kts
2026-04-24 01:29 19.74677 -156.04238 39 ft 20 kts
2026-04-24 01:29 19.74824 -156.04226 39 ft 23 kts
2026-04-24 01:30 19.74993 -156.04210 39 ft 26 kts
2026-04-24 01:30 19.75177 -156.04194 38 ft 28 kts
2026-04-24 01:30 19.75336 -156.04191 38 ft 18 kts 324°
2026-04-24 01:30 19.75365 -156.04319 38 ft 18 kts 275°
2026-04-24 01:31 19.75367 -156.04347 38 ft 0 kts 275°
2026-04-24 01:31 19.75368 -156.04359 37 ft 7 kts 276°
2026-04-24 01:31 19.75324 -156.04435 37 ft 19 kts 191°
2026-04-24 01:31 19.75118 -156.04459 40 ft 50 kts 186°
2026-04-24 01:32 19.74647 -156.04487 56 ft 80 kts 186°
2026-04-24 01:32 19.74060 -156.04545 123 ft 88 kts 197°
2026-04-24 01:32 19.73414 -156.04608 279 ft 97 kts 193°
2026-04-24 01:32 19.72706 -156.04636 433 ft 107 kts 187°
2026-04-24 01:33 19.71946 -156.04704 551 ft 112 kts 197°
2026-04-24 01:33 19.71352 -156.05170 717 ft 110 kts 244°
2026-04-24 01:33 19.71174 -156.05911 945 ft 100 kts 271°
2026-04-24 01:33 19.71398 -156.06592 1036 ft 102 kts 310°
2026-04-24 01:34 19.72062 -156.06900 1084 ft 116 kts 359°
2026-04-24 01:34 19.72856 -156.06844 1183 ft 118 kts
2026-04-24 01:34 19.73692 -156.06676 1270 ft 121 kts 13°
2026-04-24 01:34 19.74505 -156.06509 1432 ft 120 kts 10°
2026-04-24 01:35 19.75346 -156.06383 1570 ft 122 kts
2026-04-24 01:35 19.76217 -156.06273 1635 ft 128 kts
2026-04-24 01:35 19.77084 -156.06192 1797 ft 124 kts
2026-04-24 01:35 19.77934 -156.06134 1999 ft 118 kts
2026-04-24 01:36 19.78766 -156.06113 1974 ft 121 kts 20°
2026-04-24 01:36 19.79572 -156.05894 1991 ft 118 kts 31°
2026-04-24 01:36 19.80361 -156.05594 2039 ft 120 kts 30°
2026-04-24 01:36 19.81107 -156.05248 2091 ft 118 kts 36°
2026-04-24 01:37 19.81809 -156.04834 2138 ft 117 kts 39°
2026-04-24 01:37 19.82544 -156.04409 2138 ft 120 kts 32°
2026-04-24 01:37 19.83351 -156.04120 2179 ft 120 kts 28°
2026-04-24 01:37 19.84168 -156.03923 2288 ft 119 kts 25°
2026-04-24 01:38 19.84908 -156.03586 2291 ft 120 kts 38°
2026-04-24 01:38 19.85494 -156.02943 2291 ft 120 kts 52°
2026-04-24 01:38 19.86060 -156.02310 2435 ft 116 kts 45°
2026-04-24 01:38 19.86700 -156.01758 2421 ft 121 kts 43°
2026-04-24 01:39 19.87377 -156.01196 2360 ft 127 kts 42°
2026-04-24 01:39 19.88084 -156.00652 2383 ft 125 kts 37°
2026-04-24 01:39 19.88831 -156.00241 2475 ft 120 kts 29°
2026-04-24 01:39 19.89630 -155.99880 2365 ft 127 kts 30°
2026-04-24 01:40 19.90411 -155.99490 2410 ft 120 kts 30°
2026-04-24 01:40 19.91194 -155.99105 2347 ft 128 kts 27°
2026-04-24 01:40 19.92031 -155.98819 2389 ft 124 kts 23°
2026-04-24 01:40 19.92868 -155.98606 2375 ft 124 kts 18°
2026-04-24 01:41 19.93741 -155.98433 2313 ft 129 kts 17°
2026-04-24 01:41 19.94619 -155.98265 2276 ft 130 kts 15°
2026-04-24 01:41 19.95538 -155.98206 2282 ft 131 kts
2026-04-24 01:41 19.96422 -155.98158 2298 ft 126 kts 15°
2026-04-24 01:42 19.97301 -155.98013 2208 ft 131 kts 14°
2026-04-24 01:42 19.98225 -155.97909 2190 ft 133 kts
2026-04-24 01:42 19.99109 -155.98011 2320 ft 126 kts
2026-04-24 01:42 20.00005 -155.98094 2175 ft 134 kts
2026-04-24 01:43 20.00923 -155.98024 2212 ft 128 kts 14°
2026-04-24 01:43 20.01781 -155.97901 2285 ft 126 kts 16°
2026-04-24 01:43 20.02629 -155.97740 2311 ft 123 kts 21°
2026-04-24 01:43 20.03490 -155.97566 2275 ft 127 kts 18°
2026-04-24 01:44 20.04336 -155.97322 2290 ft 128 kts 23°
2026-04-24 01:44 20.05202 -155.97061 2232 ft 130 kts 24°
2026-04-24 01:44 20.06032 -155.96816 2363 ft 121 kts 19°
2026-04-24 01:44 20.06889 -155.96612 2323 ft 125 kts 20°
2026-04-24 01:45 20.07719 -155.96373 2391 ft 121 kts 22°
2026-04-24 01:45 20.08508 -155.96128 2480 ft 117 kts 25°
2026-04-24 01:45 20.09317 -155.95840 2361 ft 126 kts 23°
2026-04-24 01:45 20.10130 -155.95548 2411 ft 121 kts 24°
2026-04-24 01:46 20.10944 -155.95306 2433 ft 121 kts 20°
2026-04-24 01:46 20.11501 -155.95199 2396 ft 125 kts 16°
2026-04-24 01:46 20.12374 -155.95097 2348 ft 127 kts 13°
2026-04-24 01:46 20.13241 -155.94999 2411 ft 122 kts 12°
2026-04-24 01:47 20.14101 -155.94985 2419 ft 126 kts
2026-04-24 01:47 20.14995 -155.95046 2321 ft 130 kts
2026-04-24 01:47 20.15875 -155.94989 2323 ft 125 kts 16°
2026-04-24 01:47 20.16705 -155.94813 2342 ft 122 kts 20°
2026-04-24 01:48 20.17520 -155.94543 2302 ft 123 kts 24°
2026-04-24 01:48 20.18271 -155.94137 2312 ft 117 kts 36°
2026-04-24 01:48 20.18916 -155.93629 2295 ft 115 kts 40°
2026-04-24 01:48 20.19623 -155.93131 2127 ft 126 kts 36°
2026-04-24 01:49 20.20264 -155.92511 2066 ft 128 kts 51°
2026-04-24 01:49 20.20641 -155.91666 2073 ft 122 kts 74°
2026-04-24 01:49 20.20759 -155.90804 2209 ft 114 kts 83°
2026-04-24 01:49 20.20789 -155.89973 2326 ft 113 kts 87°
2026-04-24 01:50 20.20853 -155.89112 2497 ft 117 kts 85°
2026-04-24 01:50 20.20917 -155.88259 2571 ft 117 kts 83°
2026-04-24 01:50 20.20958 -155.87390 2576 ft 117 kts 85°
2026-04-24 01:50 20.21019 -155.86515 2601 ft 124 kts 85°
2026-04-24 01:51 20.21058 -155.85580 2580 ft 123 kts 87°
2026-04-24 01:51 20.21015 -155.84667 2547 ft 128 kts 90°
2026-04-24 01:51 20.20987 -155.83721 2594 ft 125 kts 88°
2026-04-24 01:51 20.20930 -155.82799 2553 ft 128 kts 94°
2026-04-24 01:52 20.20873 -155.81842 2498 ft 128 kts 92°
2026-04-24 01:52 20.20803 -155.80916 2520 ft 126 kts 92°
2026-04-24 01:52 20.20793 -155.79976 2503 ft 127 kts 88°
2026-04-24 01:52 20.20836 -155.79017 2436 ft 133 kts 85°
2026-04-24 01:53 20.20897 -155.78066 2490 ft 128 kts 83°
2026-04-24 01:53 20.20925 -155.77132 2572 ft 126 kts 86°
2026-04-24 01:53 20.20889 -155.76183 2522 ft 131 kts 88°
2026-04-24 01:53 20.20903 -155.75224 2545 ft 128 kts 83°
2026-04-24 01:54 20.20882 -155.74267 2548 ft 133 kts 91°
2026-04-24 01:54 20.20802 -155.73363 2754 ft 125 kts 94°
2026-04-24 01:54 20.20565 -155.72452 2744 ft 131 kts 106°
2026-04-24 01:54 20.20189 -155.71552 2672 ft 135 kts 111°
2026-04-24 01:55 20.19790 -155.70635 2570 ft 137 kts 110°
2026-04-24 01:55 20.19389 -155.69733 2547 ft 133 kts 111°
2026-04-24 01:55 20.18975 -155.68840 2460 ft 135 kts 110°
2026-04-24 01:55 20.18576 -155.67934 2402 ft 134 kts 111°
2026-04-24 01:56 20.18212 -155.67022 2339 ft 134 kts 108°
2026-04-24 01:56 20.17870 -155.66107 2297 ft 132 kts 107°
2026-04-24 01:56 20.17607 -155.65172 2216 ft 133 kts 98°
2026-04-24 01:56 20.17434 -155.64196 2126 ft 135 kts 99°
2026-04-24 01:57 20.17133 -155.63256 2096 ft 135 kts 110°
2026-04-24 01:57 20.16692 -155.62364 2029 ft 137 kts 116°
2026-04-24 01:57 20.16229 -155.61500 2010 ft 135 kts 116°
2026-04-24 01:57 20.15745 -155.60613 1945 ft 139 kts 116°
2026-04-24 01:58 20.15237 -155.59746 1965 ft 137 kts 121°
2026-04-24 01:58 20.14706 -155.58909 1971 ft 135 kts 117°
2026-04-24 01:58 20.14261 -155.58039 1953 ft 136 kts 115°
2026-04-24 01:58 20.13806 -155.57158 1953 ft 136 kts 116°
2026-04-24 01:59 20.13355 -155.56279 1949 ft 136 kts 116°
2026-04-24 01:59 20.12914 -155.55390 1934 ft 136 kts 115°
2026-04-24 01:59 20.12474 -155.54500 1946 ft 136 kts 114°
2026-04-24 01:59 20.12052 -155.53602 1959 ft 136 kts 113°
2026-04-24 02:00 20.11642 -155.52698 1984 ft 136 kts 112°
2026-04-24 02:00 20.11238 -155.51800 2059 ft 133 kts 111°
2026-04-24 02:00 20.10857 -155.50898 2094 ft 134 kts 108°
2026-04-24 02:00 20.10532 -155.49964 2143 ft 134 kts 108°
2026-04-24 02:01 20.10189 -155.49034 2182 ft 135 kts 108°
2026-04-24 02:01 20.09848 -155.48103 2184 ft 135 kts 110°
2026-04-24 02:01 20.09462 -155.47186 2182 ft 136 kts 113°
2026-04-24 02:01 20.09043 -155.46287 2189 ft 135 kts 113°
2026-04-24 02:02 20.08625 -155.45387 2174 ft 136 kts 114°
2026-04-24 02:02 20.08191 -155.44494 2175 ft 135 kts 114°
2026-04-24 02:02 20.07780 -155.43589 2176 ft 135 kts 111°
2026-04-24 02:02 20.07374 -155.42682 2171 ft 137 kts 114°
2026-04-24 02:03 20.06417 -155.40937 2183 ft 136 kts 118°
2026-04-24 02:03 20.05968 -155.40057 2210 ft 134 kts 112°
2026-04-24 02:03 20.05629 -155.39144 2209 ft 134 kts 105°
2026-04-24 02:04 20.05405 -155.38181 2204 ft 134 kts 99°
2026-04-24 02:04 20.05113 -155.37242 2218 ft 133 kts 106°
2026-04-24 02:04 20.04695 -155.36350 2219 ft 136 kts 117°
2026-04-24 02:04 20.04135 -155.35534 2224 ft 137 kts 123°
2026-04-24 02:05 20.03572 -155.34736 2223 ft 137 kts 122°
2026-04-24 02:05 20.03030 -155.33906 2248 ft 136 kts 121°
2026-04-24 02:05 20.02528 -155.33058 2246 ft 136 kts 118°
2026-04-24 02:05 20.02026 -155.32210 2243 ft 135 kts 117°
2026-04-24 02:06 20.01510 -155.31368 2245 ft 136 kts 120°
2026-04-24 02:06 20.01061 -155.30495 2253 ft 135 kts 115°
2026-04-24 02:06 20.00637 -155.29600 2287 ft 135 kts 112°
2026-04-24 02:06 20.00310 -155.28663 2260 ft 136 kts 101°
2026-04-24 02:07 20.00086 -155.27690 2269 ft 137 kts 103°
2026-04-24 02:07 19.99791 -155.26729 2281 ft 136 kts 102°
2026-04-24 02:07 19.99587 -155.25779 2349 ft 131 kts 97°
2026-04-24 02:07 19.99296 -155.24816 2238 ft 144 kts 111°
2026-04-24 02:08 19.98688 -155.23974 2306 ft 141 kts 130°
2026-04-24 02:08 19.97942 -155.23315 2351 ft 142 kts 139°
2026-04-24 02:08 19.97166 -155.22644 2340 ft 143 kts 138°
2026-04-24 02:08 19.96358 -155.22033 2406 ft 143 kts 143°
2026-04-24 02:09 19.95536 -155.21458 2438 ft 142 kts 143°
2026-04-24 02:09 19.94721 -155.20850 2407 ft 144 kts 142°
2026-04-24 02:09 19.93913 -155.20219 2446 ft 143 kts 139°
2026-04-24 02:09 19.93113 -155.19607 2475 ft 144 kts 140°
2026-04-24 02:10 19.92326 -155.18960 2515 ft 142 kts 137°
2026-04-24 02:10 19.91574 -155.18280 2552 ft 141 kts 135°
2026-04-24 02:10 19.90874 -155.17548 2567 ft 143 kts 130°
2026-04-24 02:10 19.90232 -155.16736 2563 ft 142 kts 122°
2026-04-24 02:11 19.89661 -155.15893 2584 ft 141 kts 124°
2026-04-24 02:11 19.89025 -155.15087 2557 ft 144 kts 127°
2026-04-24 02:11 19.88300 -155.14355 2551 ft 143 kts 134°
2026-04-24 02:11 19.87480 -155.13734 2576 ft 146 kts 145°
2026-04-24 02:12 19.86559 -155.13251 2571 ft 148 kts 156°
2026-04-24 02:12 19.85605 -155.12889 2616 ft 145 kts 159°
2026-04-24 02:12 19.84620 -155.12585 2553 ft 149 kts 161°
2026-04-24 02:12 19.83631 -155.12269 2537 ft 147 kts 160°
2026-04-24 02:13 19.82648 -155.11921 2537 ft 148 kts 157°
2026-04-24 02:13 19.81702 -155.11512 2488 ft 148 kts 156°
2026-04-24 02:13 19.80706 -155.11235 2438 ft 152 kts 168°
2026-04-24 02:13 19.79634 -155.11161 2456 ft 151 kts 179°
2026-04-24 02:14 19.78617 -155.11284 2467 ft 151 kts 187°
2026-04-24 02:14 19.77583 -155.11526 2466 ft 149 kts 193°
2026-04-24 02:14 19.76601 -155.11800 2384 ft 148 kts 193°
2026-04-24 02:14 19.75597 -155.12167 2205 ft 153 kts 200°
2026-04-24 02:15 19.74652 -155.12615 2183 ft 148 kts 205°
2026-04-24 02:15 19.73697 -155.13094 2076 ft 150 kts 205°
2026-04-24 02:15 19.72725 -155.13322 2054 ft 142 kts 166°
2026-04-24 02:15 19.72241 -155.12561 1893 ft 135 kts 84°
2026-04-24 02:16 19.72216 -155.11578 1651 ft 133 kts 90°
2026-04-24 02:16 19.72166 -155.10625 1420 ft 123 kts 86°
2026-04-24 02:16 19.72134 -155.09769 1240 ft 110 kts 88°
2026-04-24 02:16 19.72117 -155.08976 1144 ft 105 kts 87°
2026-04-24 02:17 19.72115 -155.08214 969 ft 104 kts 85°
2026-04-24 02:17 19.72102 -155.07495 748 ft 90 kts 87°
2026-04-24 02:17 19.72113 -155.06876 528 ft 80 kts 81°
2026-04-24 02:17 19.72122 -155.06304 343 ft 74 kts 86°
2026-04-24 02:18 19.72133 -155.05769 156 ft 72 kts 79°
2026-04-24 02:18 19.72140 -155.05244 63 ft 69 kts 85°
2026-04-24 02:18 19.72140 -155.04846 44 ft 19 kts 88°
2026-04-24 02:18 19.72145 -155.04714 43 ft 20 kts 92°
2026-04-24 02:19 19.72149 -155.04574 44 ft 27 kts 86°
2026-04-24 02:19 19.72150 -155.04487 44 ft 9 kts 91°
2026-04-24 02:19 19.72149 -155.04452 44 ft 0 kts 93°